| time (UTC) | temp C | wind direction | speed KPH | gust KPH | rain 1hr cm | rain 24hr cm | rain mn cm | humidity % | barometer mb |
| 20260510123046 | 21 | 320 | 3.2 | 4.8 | 0.00 | 0.61 | 0.00 | 93 | 1030.9 |
| 20260510122026 | 21 | 328 | 1.6 | 3.2 | 0.00 | 0.61 | 0.00 | 93 | 1030.8 |
| 20260510121028 | 21 | 148 | 0.0 | 1.6 | 0.00 | 0.61 | 0.00 | 93 | 1030.6 |
| 20260510120032 | 21 | 148 | 0.0 | 0.0 | 0.00 | 0.61 | 0.00 | 93 | 1030.5 |
| 20260510115033 | 21 | 148 | 0.0 | 0.0 | 0.00 | 0.61 | 0.00 | 93 | 1030.4 |
| 20260510114054 | 21 | 148 | 0.0 | 0.0 | 0.00 | 0.61 | 0.00 | 93 | 1030.3 |
| 20260510113018 | 21 | 148 | 0.0 | 0.0 | 0.00 | 0.61 | 0.00 | 93 | 1030.3 |
| 20260510112019 | 21 | 148 | 0.0 | 0.0 | 0.00 | 0.61 | 0.00 | 93 | 1030.1 |
| 20260510111040 | 21 | 148 | 0.0 | 0.0 | 0.00 | 0.61 | 0.00 | 93 | 1030.0 |
| 20260510110024 | 21 | 148 | 0.0 | 0.0 | 0.00 | 0.61 | 0.00 | 93 | 1029.7 |
| 20260510105025 | 21 | 148 | 0.0 | 0.0 | 0.00 | 0.61 | 0.00 | 93 | 1029.5 |
| 20260510104026 | 21 | 148 | 0.0 | 0.0 | 0.00 | 0.61 | 0.00 | 93 | 1029.5 |
| 20260510103027 | 21 | 148 | 0.0 | 0.0 | 0.00 | 0.61 | 0.00 | 93 | 1029.5 |
| 20260510102032 | 21 | 148 | 0.0 | 0.0 | 0.00 | 0.61 | 0.00 | 93 | 1029.4 |
| 20260510101033 | 21 | 148 | 0.0 | 0.0 | 0.00 | 0.61 | 0.00 | 93 | 1029.3 |
| 20260510100034 | 21 | 148 | 0.0 | 0.0 | 0.00 | 0.61 | 0.00 | 93 | 1029.3 |
| 20260510095019 | 21 | 148 | 0.0 | 0.0 | 0.00 | 0.61 | 0.00 | 93 | 1029.0 |
| 20260510094020 | 21 | 148 | 0.0 | 0.0 | 0.00 | 0.61 | 0.00 | 93 | 1029.0 |
| 20260510093021 | 21 | 148 | 0.0 | 0.0 | 0.00 | 0.61 | 0.00 | 93 | 1029.0 |
| 20260510092026 | 21 | 148 | 0.0 | 0.0 | 0.00 | 0.61 | 0.00 | 93 | 1028.8 |
| 20260510091028 | 21 | 148 | 0.0 | 0.0 | 0.00 | 0.61 | 0.00 | 92 | 1028.7 |
| 20260510090028 | 21 | 148 | 0.0 | 0.0 | 0.00 | 0.61 | 0.00 | 93 | 1028.5 |
| 20260510085033 | 21 | 148 | 0.0 | 0.0 | 0.00 | 0.61 | 0.00 | 93 | 1028.5 |
| 20260510084034 | 21 | 148 | 0.0 | 0.0 | 0.00 | 0.61 | 0.00 | 93 | 1028.3 |
| 20260510083015 | 21 | 148 | 0.0 | 0.0 | 0.00 | 0.61 | 0.00 | 93 | 1028.3 |
| 20260510082020 | 21 | 148 | 0.0 | 0.0 | 0.00 | 0.61 | 0.00 | 93 | 1028.2 |
| 20260510081021 | 21 | 148 | 0.0 | 0.0 | 0.00 | 0.61 | 0.00 | 93 | 1028.1 |
| 20260510080022 | 21 | 148 | 0.0 | 0.0 | 0.00 | 0.61 | 0.00 | 92 | 1028.2 |
| 20260510075027 | 21 | 148 | 0.0 | 0.0 | 0.00 | 0.61 | 0.00 | 92 | 1028.3 |
| 20260510074028 | 21 | 148 | 0.0 | 0.0 | 0.00 | 0.61 | 0.00 | 92 | 1028.2 |
| 20260510073029 | 21 | 148 | 0.0 | 0.0 | 0.00 | 0.61 | 0.00 | 92 | 1028.2 |
| 20260510072030 | 21 | 148 | 0.0 | 0.0 | 0.00 | 0.61 | 0.00 | 92 | 1028.2 |
| 20260510071016 | 21 | 148 | 0.0 | 0.0 | 0.00 | 0.61 | 0.00 | 92 | 1028.2 |
| 20260510070024 | 21 | 148 | 0.0 | 1.6 | 0.00 | 0.61 | 0.00 | 92 | 1028.0 |
| 20260510065045 | 21 | 148 | 0.0 | 0.0 | 0.00 | 0.61 | 0.00 | 92 | 1028.0 |
| 20260510064030 | 21 | 148 | 0.0 | 0.0 | 0.00 | 0.61 | 0.00 | 92 | 1028.1 |
| 20260510063031 | 21 | 148 | 0.0 | 1.6 | 0.00 | 0.61 | 0.00 | 92 | 1028.4 |
| 20260510062033 | 21 | 152 | 1.6 | 3.2 | 0.00 | 0.61 | 0.00 | 92 | 1028.4 |
| 20260510061018 | 21 | 162 | 0.0 | 4.8 | 0.00 | 0.61 | 0.00 | 92 | 1028.4 |
| 20260510060020 | 21 | 147 | 0.0 | 3.2 | 0.00 | 0.61 | 0.00 | 92 | 1028.5 |
| 20260510055021 | 21 | 155 | 1.6 | 3.2 | 0.00 | 0.61 | 0.00 | 92 | 1028.7 |
| 20260510054026 | 21 | 134 | 0.0 | 3.2 | 0.00 | 0.61 | 0.00 | 92 | 1028.8 |
| 20260510053048 | 21 | 174 | 1.6 | 3.2 | 0.00 | 0.61 | 0.00 | 92 | 1029.0 |
| 20260510052028 | 21 | 155 | 0.0 | 1.6 | 0.00 | 0.61 | 0.00 | 92 | 1029.1 |
| 20260510051030 | 21 | 176 | 0.0 | 3.2 | 0.00 | 0.61 | 0.00 | 92 | 1029.3 |
| 20260510050036 | 21 | 160 | 0.0 | 1.6 | 0.00 | 0.71 | 0.00 | 92 | 1029.5 |
| 20260510045017 | 21 | 207 | 0.0 | 1.6 | 0.00 | 0.71 | 0.00 | 92 | 1029.7 |
| 20260510044038 | 21 | 207 | 0.0 | 1.6 | 0.00 | 0.71 | 0.00 | 92 | 1029.7 |
| 20260510043039 | 21 | 207 | 0.0 | 1.6 | 0.00 | 0.71 | 0.00 | 92 | 1029.7 |
| 20260510042023 | 21 | 207 | 0.0 | 0.0 | 0.00 | 0.71 | 0.00 | 92 | 1029.5 |
| 20260510041025 | 21 | 207 | 0.0 | 1.6 | 0.00 | 0.71 | 0.00 | 92 | 1029.7 |
| 20260510040026 | 21 | 207 | 0.0 | 1.6 | 0.00 | 0.74 | 0.71 | 92 | 1029.6 |
| 20260510035031 | 21 | 207 | 0.0 | 0.0 | 0.00 | 0.74 | 0.71 | 91 | 1029.6 |
| 20260510034033 | 21 | 207 | 0.0 | 0.0 | 0.00 | 0.74 | 0.71 | 91 | 1029.6 |
| 20260510033035 | 21 | 207 | 0.0 | 1.6 | 0.00 | 0.74 | 0.71 | 91 | 1029.8 |
| 20260510032020 | 21 | 207 | 0.0 | 1.6 | 0.00 | 0.74 | 0.71 | 91 | 1029.8 |
| 20260510031021 | 21 | 220 | 0.0 | 1.6 | 0.00 | 0.74 | 0.71 | 91 | 1029.9 |
| 20260510030023 | 21 | 220 | 0.0 | 1.6 | 0.00 | 0.74 | 0.71 | 91 | 1029.8 |
| 20260510025028 | 21 | 220 | 0.0 | 1.6 | 0.00 | 0.74 | 0.71 | 91 | 1029.5 |
| 20260510024030 | 21 | 220 | 0.0 | 1.6 | 0.00 | 0.74 | 0.71 | 91 | 1029.4 |
| 20260510023031 | 21 | 220 | 0.0 | 1.6 | 0.00 | 0.74 | 0.71 | 91 | 1029.2 |
| 20260510022017 | 21 | 220 | 0.0 | 0.0 | 0.00 | 0.74 | 0.71 | 91 | 1028.9 |
| 20260510021018 | 21 | 220 | 0.0 | 0.0 | 0.00 | 0.74 | 0.71 | 91 | 1028.9 |
| 20260510020021 | 21 | 220 | 0.0 | 0.0 | 0.00 | 0.74 | 0.71 | 91 | 1028.7 |
| 20260510015021 | 21 | 220 | 0.0 | 1.6 | 0.00 | 0.74 | 0.71 | 91 | 1028.7 |
| 20260510014027 | 21 | 220 | 0.0 | 1.6 | 0.00 | 0.74 | 0.71 | 90 | 1028.6 |
| 20260510013028 | 21 | 220 | 0.0 | 0.0 | 0.00 | 0.74 | 0.71 | 90 | 1028.3 |
| 20260510012051 | 21 | 220 | 0.0 | 1.6 | 0.00 | 0.74 | 0.71 | 90 | 1028.1 |
| 20260510011035 | 21 | 221 | 0.0 | 1.6 | 0.00 | 0.74 | 0.71 | 90 | 1028.0 |
| 20260510010016 | 21 | 221 | 0.0 | 1.6 | 0.03 | 0.74 | 0.71 | 90 | 1028.1 |
| 20260510005038 | 21 | 221 | 0.0 | 0.0 | 0.03 | 0.74 | 0.71 | 90 | 1028.2 |
| 20260510004019 | 21 | 221 | 0.0 | 1.6 | 0.03 | 0.74 | 0.71 | 90 | 1028.4 |
| 20260510003024 | 21 | 221 | 0.0 | 1.6 | 0.05 | 0.74 | 0.71 | 90 | 1028.2 |
| 20260510002046 | 21 | 220 | 1.6 | 1.6 | 0.05 | 0.74 | 0.71 | 90 | 1028.2 |
| 20260510001026 | 21 | 220 | 0.0 | 1.6 | 0.08 | 0.74 | 0.71 | 89 | 1028.4 |
| 20260510000032 | 21 | 300 | 0.0 | 1.6 | 0.05 | 0.71 | 0.69 | 89 | 1028.6 |
| 20260509235033 | 21 | 300 | 0.0 | 1.6 | 0.05 | 0.71 | 0.69 | 89 | 1028.8 |
| 20260509234015 | 21 | 273 | 0.0 | 1.6 | 0.05 | 0.71 | 0.69 | 89 | 1028.8 |
| 20260509233040 | 22 | 307 | 0.0 | 1.6 | 0.03 | 0.69 | 0.66 | 88 | 1028.8 |
| 20260509232021 | 22 | 328 | 0.0 | 1.6 | 0.03 | 0.69 | 0.66 | 88 | 1028.7 |
| 20260509231022 | 22 | 328 | 1.6 | 3.2 | 0.00 | 0.66 | 0.64 | 88 | 1028.6 |
| 20260509230024 | 22 | 41 | 0.0 | 3.2 | 0.00 | 1.17 | 0.64 | 88 | 1028.6 |
| 20260509225029 | 22 | 20 | 1.6 | 4.8 | 0.03 | 1.17 | 0.64 | 88 | 1028.4 |
| 20260509224031 | 22 | 341 | 3.2 | 9.7 | 0.03 | 1.17 | 0.64 | 88 | 1028.4 |
| 20260509223052 | 22 | 10 | 0.0 | 9.7 | 0.03 | 1.17 | 0.64 | 88 | 1028.3 |
| 20260509222018 | 22 | 330 | 1.6 | 6.4 | 0.03 | 1.17 | 0.64 | 88 | 1028.4 |
| 20260509221019 | 22 | 8 | 3.2 | 6.4 | 0.03 | 1.17 | 0.64 | 87 | 1028.5 |
| 20260509220021 | 22 | 31 | 6.4 | 12.9 | 0.03 | 1.17 | 0.64 | 87 | 1028.3 |
| 20260509215026 | 22 | 322 | 1.6 | 8.0 | 0.00 | 1.14 | 0.61 | 88 | 1028.4 |
| 20260509214028 | 22 | 302 | 1.6 | 6.4 | 0.00 | 1.14 | 0.61 | 87 | 1028.1 |
| 20260509213029 | 22 | 23 | 1.6 | 8.0 | 0.00 | 1.14 | 0.61 | 87 | 1027.9 |
| 20260509212015 | 22 | 18 | 1.6 | 6.4 | 0.00 | 1.14 | 0.61 | 87 | 1027.8 |
| 20260509211036 | 22 | 328 | 3.2 | 8.0 | 0.00 | 1.14 | 0.61 | 87 | 1027.9 |
| 20260509210017 | 22 | 281 | 0.0 | 6.4 | 0.00 | 1.14 | 0.61 | 87 | 1028.0 |
| 20260509205018 | 22 | 319 | 3.2 | 9.7 | 0.05 | 1.14 | 0.61 | 86 | 1027.7 |
| 20260509204024 | 23 | 295 | 3.2 | 14.5 | 0.05 | 1.14 | 0.61 | 86 | 1027.9 |
| 20260509203025 | 23 | 346 | 4.8 | 12.9 | 0.05 | 1.14 | 0.61 | 88 | 1027.8 |
| 20260509202027 | 23 | 358 | 3.2 | 12.9 | 0.25 | 1.14 | 0.61 | 88 | 1027.8 |
| 20260509201052 | 23 | 307 | 3.2 | 8.0 | 0.41 | 1.14 | 0.61 | 87 | 1027.6 |
| 20260509200033 | 23 | 335 | 4.8 | 9.7 | 0.41 | 1.14 | 0.61 | 87 | 1027.8 |
| 20260509195054 | 23 | 7 | 0.0 | 1.6 | 0.36 | 1.09 | 0.56 | 88 | 1027.7 |
| 20260509194019 | 23 | 217 | 0.0 | 1.6 | 0.41 | 1.09 | 0.56 | 88 | 1027.7 |
| 20260509193019 | 23 | 316 | 1.6 | 3.2 | 0.46 | 1.09 | 0.56 | 86 | 1027.8 |
| 20260509192022 | 24 | 356 | 3.2 | 8.0 | 0.23 | 0.86 | 0.33 | 84 | 1028.4 |
| 20260509191023 | 25 | 305 | 3.2 | 6.4 | 0.10 | 0.74 | 0.20 | 85 | 1027.9 |
| 20260509190029 | 25 | 328 | 1.6 | 3.2 | 0.10 | 0.74 | 0.20 | 84 | 1027.9 |
| 20260509185029 | 25 | 237 | 0.0 | 1.6 | 0.10 | 0.74 | 0.20 | 81 | 1027.9 |
| 20260509184032 | 26 | 231 | 0.0 | 1.6 | 0.03 | 0.66 | 0.13 | 78 | 1027.8 |
| 20260509183017 | 26 | 214 | 0.0 | 3.2 | 0.00 | 0.64 | 0.10 | 75 | 1027.9 |
| 20260509182018 | 27 | 205 | 0.0 | 3.2 | 0.00 | 0.64 | 0.10 | 72 | 1027.9 |
| 20260509181020 | 27 | 326 | 1.6 | 3.2 | 0.00 | 0.64 | 0.10 | 71 | 1027.9 |
| 20260509180025 | 27 | 101 | 0.0 | 3.2 | 0.00 | 0.64 | 0.10 | 71 | 1028.0 |
| 20260509175026 | 27 | 259 | 1.6 | 4.8 | 0.00 | 0.64 | 0.10 | 70 | 1028.1 |
| 20260509174029 | 27 | 212 | 1.6 | 4.8 | 0.00 | 0.64 | 0.10 | 71 | 1028.3 |
| 20260509173013 | 27 | 203 | 1.6 | 3.2 | 0.00 | 0.64 | 0.10 | 72 | 1028.3 |
| 20260509172015 | 26 | 50 | 1.6 | 4.8 | 0.00 | 0.64 | 0.10 | 74 | 1028.3 |
| 20260509171017 | 26 | 78 | 4.8 | 9.7 | 0.00 | 0.64 | 0.10 | 74 | 1028.2 |
| 20260509170022 | 26 | 128 | 1.6 | 6.4 | 0.00 | 0.64 | 0.10 | 76 | 1028.3 |
| 20260509165023 | 26 | 129 | 3.2 | 6.4 | 0.00 | 0.64 | 0.10 | 76 | 1028.4 |
| 20260509164026 | 26 | 119 | 1.6 | 6.4 | 0.00 | 0.64 | 0.10 | 77 | 1028.4 |
| 20260509163047 | 26 | 91 | 3.2 | 6.4 | 0.00 | 0.64 | 0.10 | 76 | 1028.6 |
| 20260509162032 | 26 | 113 | 1.6 | 4.8 | 0.00 | 0.64 | 0.10 | 77 | 1028.7 |
| 20260509161054 | 26 | 94 | 3.2 | 4.8 | 0.00 | 0.64 | 0.10 | 76 | 1028.6 |
| 20260509160014 | 25 | 110 | 0.0 | 3.2 | 0.00 | 0.64 | 0.10 | 77 | 1028.8 |
| 20260509155019 | 25 | 283 | 0.0 | 3.2 | 0.00 | 0.64 | 0.10 | 77 | 1028.8 |
| 20260509154022 | 25 | 328 | 1.6 | 3.2 | 0.00 | 0.64 | 0.10 | 78 | 1028.8 |
| 20260509153022 | 25 | 126 | 1.6 | 4.8 | 0.00 | 0.64 | 0.10 | 78 | 1028.6 |
| 20260509152028 | 25 | 78 | 3.2 | 4.8 | 0.00 | 0.64 | 0.10 | 79 | 1028.6 |
| 20260509151030 | 25 | 153 | 0.0 | 1.6 | 0.00 | 0.64 | 0.10 | 78 | 1028.6 |
| 20260509150031 | 25 | 172 | 0.0 | 3.2 | 0.00 | 0.64 | 0.10 | 78 | 1028.6 |
| 20260509145016 | 25 | 106 | 1.6 | 6.4 | 0.00 | 0.64 | 0.10 | 79 | 1028.9 |
| 20260509144019 | 25 | 329 | 3.2 | 3.2 | 0.00 | 0.64 | 0.10 | 79 | 1028.7 |
| 20260509143019 | 25 | 223 | 0.0 | 3.2 | 0.00 | 0.64 | 0.10 | 80 | 1028.7 |
| 20260509142024 | 24 | 156 | 0.0 | 3.2 | 0.00 | 0.64 | 0.10 | 81 | 1028.6 |
| 20260509141027 | 23 | 191 | 1.6 | 4.8 | 0.00 | 0.64 | 0.10 | 82 | 1028.6 |
| 20260509140027 | 23 | 157 | 0.0 | 3.2 | 0.00 | 0.64 | 0.10 | 83 | 1028.5 |
| 20260509135013 | 23 | 246 | 0.0 | 3.2 | 0.00 | 0.64 | 0.10 | 83 | 1028.9 |
| 20260509134015 | 23 | 257 | 1.6 | 4.8 | 0.00 | 0.64 | 0.10 | 83 | 1029.0 |
| 20260509133016 | 23 | 325 | 1.6 | 4.8 | 0.00 | 0.64 | 0.10 | 84 | 1028.9 |
| 20260509132017 | 22 | 214 | 1.6 | 3.2 | 0.00 | 0.64 | 0.10 | 84 | 1028.6 |
| 20260509131024 | 22 | 312 | 1.6 | 3.2 | 0.00 | 0.64 | 0.10 | 84 | 1028.4 |
| 20260509130024 | 22 | 167 | 1.6 | 4.8 | 0.00 | 0.64 | 0.10 | 85 | 1028.3 |
| 20260509125026 | 22 | 179 | 1.6 | 4.8 | 0.00 | 0.64 | 0.10 | 85 | 1028.2 |
| 20260509124032 | 22 | 218 | 0.0 | 3.2 | 0.00 | 0.64 | 0.10 | 85 | 1028.3 |